Weather History for Ainsworth, NE

Change the Weather History Date:

Tuesday, January 17, 2012

  Actual Average Record
Temperature  
Mean Temperature 12 °F -  
Max Temperature 26 °F 33 °F 51 °F (2000)
Min Temperature -1 °F 13 °F -7 °F (1997)
Degree Days  
Heating Degree Days 52    
Moisture  
Dew Point 5 °F    
Average Humidity 73    
Maximum Humidity 85    
Minimum Humidity 52    
Precipitation  
Precipitation 0.00 in - - ()
Sea Level Pressure  
Sea Level Pressure 30.16 in    
Wind  
Wind Speed 11 mph (WSW)    
Max Wind Speed 17 mph    
Max Gust Speed 24 mph    
Visibility 9 miles    
Events Snow    
Averages and records for this station are not official NWS values.
T = Trace of Precipitation, MM = Missing Value Source: NWS Daily Summary

Daily Weather History Graph

Daily Weather History Graph

Search for Another Location

Airport:

Trip Planner

Search our weather history database for the weather conditions in past years. The results will help you decide how hot, cold, wet, or windy it might be!

Date:

Astronomy

Jan. 17, 2012 Rise Set
Actual Time 8:06 AM CST 5:33 PM CST
Civil Twilight 7:35 AM CST 6:04 PM CST
Nautical Twilight 7:00 AM CST 6:39 PM CST
Astronomical Twilight 6:26 AM CST 7:13 PM CST
Moon 2:27 AM CST (1/17) 12:28 PM CST (1/17)
Length of Visible Light 10h 29m
Length of Day
9h 27m
Waning Crescent, 35% of the Moon is Illuminated
Jan 17
Waning Crescent
Jan 23
New
Jan 30
First Quarter
Feb 7
Full
Feb 14
Last Quarter

Hourly Weather History & Observations

Time (CST) Temp. Windchill Dew Point Humidity Pressure Visibility Wind Dir Wind Speed Gust Speed Precip Events Conditions
12:15 AM 9.3 °F -8.0 °F 4.8 °F 82% 30.10 in 2.5 mi NW 16.1 mph 21.9 mph N/A Snow Light Snow
12:35 AM 9.1 °F -8.8 °F 4.3 °F 81% 30.10 in 4.0 mi NNW 17.3 mph 23.0 mph N/A Snow Light Snow
12:55 AM 8.6 °F -9.5 °F 5.0 °F 85% 30.10 in 7.0 mi NNW 17.3 mph - N/A Snow Light Snow
1:15 AM 9.0 °F -9.0 °F 3.9 °F 80% 30.10 in 10.0 mi NNW 17.3 mph 24.2 mph N/A   Overcast
1:35 AM 9.0 °F -8.5 °F 3.7 °F 79% 30.10 in 7.0 mi NW 16.1 mph 20.7 mph N/A Snow Light Snow
1:55 AM 8.6 °F -8.9 °F 3.6 °F 80% 30.11 in 5.0 mi NW 16.1 mph - N/A Snow Light Snow
2:15 AM 8.6 °F -8.9 °F 3.4 °F 79% 30.13 in 7.0 mi NW 16.1 mph - N/A   Overcast
2:35 AM 8.6 °F -7.7 °F 3.6 °F 80% 30.14 in 10.0 mi NNW 13.8 mph - N/A   Overcast
2:55 AM 9.0 °F -6.6 °F 3.9 °F 80% 30.15 in 10.0 mi NW 12.7 mph 17.3 mph N/A   Overcast
3:15 AM 8.6 °F -8.9 °F 3.2 °F 79% 30.16 in 4.0 mi NW 16.1 mph - N/A Snow Light Snow
3:35 AM 8.2 °F -8.8 °F 3.0 °F 79% 30.16 in 7.0 mi NW 15.0 mph 19.6 mph N/A Snow Light Snow
3:55 AM 6.8 °F -8.6 °F 1.8 °F 80% 30.16 in 10.0 mi NW 11.5 mph - N/A   Scattered Clouds
4:15 AM 5.7 °F -9.1 °F 1.0 °F 81% 30.17 in 10.0 mi NW 10.4 mph - N/A   Clear
4:35 AM 4.5 °F -9.8 °F -0.0 °F 82% 30.17 in 10.0 mi NW 9.2 mph - N/A   Clear
4:55 AM 3.7 °F -9.6 °F -0.8 °F 82% 30.17 in 10.0 mi NW 8.1 mph - N/A   Clear
5:15 AM 2.8 °F -11.7 °F -1.5 °F 82% 30.18 in 10.0 mi NW 9.2 mph - N/A   Clear
5:35 AM 1.9 °F -10.6 °F -2.2 °F 83% 30.19 in 10.0 mi WNW 6.9 mph - N/A   Clear
6:15 AM 1.4 °F -13.5 °F -2.9 °F 82% 30.21 in 10.0 mi NW 9.2 mph - N/A   Clear
6:35 AM 0.7 °F -14.4 °F -3.6 °F 82% 30.21 in 10.0 mi WNW 9.2 mph - N/A   Clear
6:55 AM 0.1 °F -14.0 °F -4.0 °F 83% 30.22 in 10.0 mi WNW 8.1 mph - N/A   Clear
7:15 AM -0.6 °F -8.5 °F -5.1 °F 81% 30.22 in 10.0 mi WNW 3.5 mph - N/A   Clear
7:35 AM -1.3 °F -13.1 °F -5.4 °F 83% 30.22 in 10.0 mi WNW 5.8 mph - N/A   Clear
7:55 AM -1.3 °F -13.1 °F -5.4 °F 83% 30.23 in 10.0 mi WNW 5.8 mph - N/A   Clear
8:15 AM -1.7 °F -14.9 °F -6.2 °F 81% 30.23 in 10.0 mi WNW 6.9 mph - N/A   Clear
8:55 AM -1.3 °F -14.5 °F -5.8 °F 81% 30.24 in 10.0 mi West 6.9 mph - N/A   Clear
9:15 AM 0.5 °F -12.3 °F -3.8 °F 82% 30.24 in 10.0 mi WNW 6.9 mph - N/A   Clear
9:35 AM 1.8 °F -12.0 °F -2.7 °F 81% 30.25 in 10.0 mi West 8.1 mph - N/A   Clear
9:55 AM 3.6 °F -5.7 °F -1.3 °F 80% 30.25 in 10.0 mi West 4.6 mph - N/A   Clear
10:15 AM 5.0 °F -4.1 °F 0.1 °F 80% 30.24 in 10.0 mi WNW 4.6 mph - N/A   Clear
10:35 AM 6.8 °F -0.1 °F 1.6 °F 79% 30.24 in 10.0 mi West 3.5 mph - N/A   Clear
10:55 AM 8.6 °F -1.3 °F 2.8 °F 77% 30.25 in 10.0 mi West 5.8 mph - N/A   Clear
11:15 AM 10.8 °F 2.7 °F 3.6 °F 73% 30.25 in 10.0 mi West 4.6 mph - N/A   Clear
11:35 AM 12.7 °F 6.7 °F 4.8 °F 71% 30.25 in 10.0 mi West 3.5 mph - N/A   Clear
11:55 AM 14.0 °F 5.1 °F 5.9 °F 70% 30.24 in 10.0 mi West 5.8 mph - N/A   Clear
12:15 PM 15.8 °F 7.2 °F 7.2 °F 69% 30.22 in 10.0 mi WSW 5.8 mph - N/A   Clear
12:35 PM 17.1 °F 7.6 °F 7.7 °F 67% 30.22 in 10.0 mi WSW 6.9 mph - N/A   Clear
12:55 PM 18.1 °F 10.0 °F 8.1 °F 65% 30.21 in 10.0 mi WSW 5.8 mph - N/A   Clear
1:15 PM 19.6 °F 10.6 °F 9.3 °F 64% 30.18 in 10.0 mi SW 6.9 mph - N/A   Clear
1:35 PM 21.0 °F 13.4 °F 10.0 °F 63% 30.17 in 10.0 mi South 5.8 mph - N/A   Clear
1:55 PM 23.0 °F 13.1 °F 10.4 °F 59% 30.17 in 10.0 mi SSW 9.2 mph - N/A   Clear
2:15 PM 23.7 °F 14.0 °F 10.2 °F 56% 30.16 in 10.0 mi SSW 9.2 mph - N/A   Clear
2:35 PM 24.6 °F 15.8 °F 10.9 °F 56% 30.16 in 10.0 mi SW 8.1 mph - N/A   Clear
2:55 PM 25.3 °F 16.7 °F 10.9 °F 54% 30.15 in 10.0 mi SW 8.1 mph - N/A   Clear
3:15 PM 25.9 °F 16.6 °F 11.5 °F 55% 30.14 in 10.0 mi South 9.2 mph - N/A   Clear
3:35 PM 25.7 °F 16.4 °F 11.5 °F 55% 30.15 in 10.0 mi South 9.2 mph - N/A   Clear
3:55 PM 26.2 °F 17.1 °F 11.3 °F 53% 30.15 in 10.0 mi South 9.2 mph - N/A   Clear
4:15 PM 26.2 °F 17.1 °F 12.4 °F 56% 30.14 in 10.0 mi South 9.2 mph - N/A   Clear
4:35 PM 26.4 °F 17.3 °F 12.7 °F 56% 30.14 in 10.0 mi South 9.2 mph - N/A   Clear
4:55 PM 25.7 °F 16.4 °F 10.4 °F 52% 30.13 in 10.0 mi SSW 9.2 mph - N/A   Clear
5:15 PM 23.4 °F 15.2 °F 10.4 °F 58% 30.12 in 10.0 mi South 6.9 mph - N/A   Clear
5:35 PM 19.2 °F 10.2 °F 9.3 °F 65% 30.12 in 10.0 mi South 6.9 mph - N/A   Clear
5:55 PM 18.3 °F 9.1 °F 8.6 °F 66% 30.11 in 10.0 mi SSE 6.9 mph - N/A   Clear
6:15 PM 17.4 °F 8.0 °F 8.1 °F 67% 30.10 in 10.0 mi SSE 6.9 mph - N/A   Clear
6:35 PM 15.8 °F 6.1 °F 7.7 °F 70% 30.10 in 10.0 mi SSE 6.9 mph - N/A   Clear
6:55 PM 16.0 °F 3.6 °F 9.3 °F 75% 30.10 in 10.0 mi South 10.4 mph - N/A   Clear
7:15 PM 17.4 °F 5.4 °F 10.4 °F 74% 30.10 in 10.0 mi South 10.4 mph - N/A   Clear
7:55 PM 19.4 °F 6.6 °F 10.9 °F 70% 30.09 in 10.0 mi SSW 12.7 mph - N/A   Clear
8:15 PM 18.1 °F 6.3 °F 10.2 °F 71% 30.08 in 10.0 mi South 10.4 mph - N/A   Clear
8:35 PM 17.6 °F 3.2 °F 10.4 °F 73% 30.07 in 10.0 mi SSW 15.0 mph - N/A   Clear
8:55 PM 18.7 °F 4.6 °F 11.1 °F 72% 30.07 in 10.0 mi SSW 15.0 mph - N/A   Clear
9:15 PM 17.6 °F 3.7 °F 10.4 °F 73% 30.05 in 10.0 mi SSW 13.8 mph - N/A   Clear
9:35 PM 17.6 °F 3.2 °F 10.6 °F 74% 30.04 in 10.0 mi SSW 15.0 mph - N/A   Clear
9:55 PM 18.0 °F 4.2 °F 10.8 °F 73% 30.03 in 10.0 mi SSW 13.8 mph - N/A   Clear
10:15 PM 17.4 °F 2.9 °F 10.4 °F 74% 30.02 in 10.0 mi SSW 15.0 mph - N/A   Clear
10:35 PM 17.1 °F 2.0 °F 10.4 °F 75% 30.01 in 10.0 mi SSW 16.1 mph - N/A   Clear
10:55 PM 16.7 °F 2.6 °F 10.4 °F 76% 30.01 in 10.0 mi SSW 13.8 mph - N/A   Clear
11:15 PM 17.2 °F 3.3 °F 10.4 °F 75% 29.99 in 10.0 mi SSW 13.8 mph - N/A   Clear
11:35 PM 17.6 °F 2.7 °F 10.4 °F 73% 29.98 in 10.0 mi SSW 16.1 mph - N/A   Clear
11:55 PM 17.4 °F 4.7 °F 10.2 °F 73% 29.97 in 10.0 mi SSW 11.5 mph - N/A   Clear